When you browse on this site, cookies collect data to enhance your experience and personalize the content and advertising you see.
Visit our Privacy Policy to learn more. By continuing to use the site, you agree to this use of cookies and data.
  • In Austria
  • List of Countries
  • For 7 days
  • Water Temperature
  • Weather Map
  • News
  • Weather Widgets
  • user-avatar
    Login

    Hourly Weather Kuvay

    Today, 19 November, Tuesday

    Time Temperature Precipitation Wind Pressure Humidity
    00:00 0°C° 0.3 mm 3 mps 753 mmHg 97%
    01:00 0°C° 0.3 mm 3 mps 752 mmHg 97%
    02:00 0°C° 0.5 mm 3 mps 752 mmHg 97%
    03:00 +1°C° 0.5 mm 2 mps 752 mmHg 98%
    04:00 0°C° 0 mm 3 mps 752 mmHg 97%
    05:00 0°C° 0.1 mm 3 mps 752 mmHg 97%
    06:00 +1°C° 0.1 mm 3 mps 752 mmHg 97%
    07:00 +2°C° 0.1 mm 2 mps 752 mmHg 97%
    08:00 +1°C° 0 mm 3 mps 752 mmHg 96%
    09:00 -1°C° 0 mm 4 mps 753 mmHg 94%
    10:00 -1°C° 0 mm 5 mps 753 mmHg 89%
    11:00 -1°C° 0 mm 5 mps 753 mmHg 85%
    12:00 -1°C° 0 mm 5 mps 754 mmHg 81%
    13:00 -1°C° 0 mm 5 mps 754 mmHg 78%
    14:00 -4°C° 0.1 mm 5 mps 754 mmHg 79%
    15:00 -5°C° 0.1 mm 5 mps 755 mmHg 79%
    16:00 -7°C° 0 mm 5 mps 756 mmHg 82%
    17:00 -7°C° 0 mm 5 mps 756 mmHg 81%
    18:00 -8°C° 0 mm 5 mps 756 mmHg 80%
    19:00 -10°C° 0 mm 5 mps 757 mmHg 78%
    20:00 -11°C° 0 mm 5 mps 757 mmHg 76%
    21:00 -11°C° 0 mm 5 mps 758 mmHg 74%
    22:00 -12°C° 0 mm 5 mps 759 mmHg 72%
    23:00 -13°C° 0 mm 5 mps 759 mmHg 71%

    Tomorrow, 20 November, Wednesday

    Time Temperature Precipitation Wind Pressure Humidity
    00:00 -13°C° 0 mm 5 mps 759 mmHg 70%
    01:00 -14°C° 0 mm 5 mps 760 mmHg 68%
    02:00 -14°C° 0 mm 5 mps 760 mmHg 66%
    03:00 -14°C° 0 mm 5 mps 761 mmHg 63%
    04:00 -15°C° 0 mm 5 mps 762 mmHg 61%
    05:00 -15°C° 0 mm 5 mps 762 mmHg 59%
    06:00 -17°C° 0 mm 5 mps 762 mmHg 56%
    07:00 -17°C° 0 mm 5 mps 762 mmHg 54%
    08:00 -17°C° 0 mm 5 mps 763 mmHg 53%
    09:00 -17°C° 0 mm 5 mps 764 mmHg 52%
    10:00 -17°C° 0 mm 5 mps 764 mmHg 50%
    11:00 -15°C° 0 mm 5 mps 764 mmHg 47%
    12:00 -15°C° 0 mm 5 mps 765 mmHg 44%
    13:00 -14°C° 0 mm 4 mps 765 mmHg 40%
    14:00 -14°C° 0 mm 4 mps 765 mmHg 42%
    15:00 -14°C° 0 mm 4 mps 766 mmHg 45%
    16:00 -14°C° 0 mm 4 mps 766 mmHg 47%
    17:00 -14°C° 0 mm 4 mps 766 mmHg 49%
    18:00 -14°C° 0 mm 4 mps 767 mmHg 52%
    19:00 -13°C° 0 mm 3 mps 767 mmHg 55%
    20:00 -14°C° 0 mm 3 mps 767 mmHg 57%
    21:00 -14°C° 0 mm 3 mps 768 mmHg 60%
    22:00 -14°C° 0 mm 3 mps 768 mmHg 63%
    23:00 -13°C° 0 mm 2 mps 768 mmHg 65%

    Day after tomorrow, 21 November, Thursday

    Time Temperature Precipitation Wind Pressure Humidity
    00:00 -13°C° 0 mm 2 mps 768 mmHg 67%
    01:00 -13°C° 0 mm 2 mps 768 mmHg 68%
    02:00 -13°C° 0 mm 2 mps 769 mmHg 69%
    03:00 -13°C° 0 mm 2 mps 769 mmHg 70%
    04:00 -11°C° 0 mm 1 mps 769 mmHg 71%
    05:00 -11°C° 0 mm 1 mps 769 mmHg 72%
    06:00 -13°C° 0 mm 2 mps 769 mmHg 73%
    07:00 -13°C° 0 mm 2 mps 769 mmHg 73%
    08:00 -13°C° 0 mm 2 mps 769 mmHg 70%
    09:00 -12°C° 0 mm 2 mps 769 mmHg 67%
    10:00 -12°C° 0 mm 2 mps 769 mmHg 64%
    11:00 -10°C° 0 mm 2 mps 769 mmHg 59%
    12:00 -9°C° 0 mm 2 mps 769 mmHg 53%
    13:00 -9°C° 0 mm 3 mps 769 mmHg 48%
    14:00 -9°C° 0 mm 3 mps 768 mmHg 50%
    15:00 -9°C° 0 mm 2 mps 768 mmHg 51%
    16:00 -9°C° 0 mm 2 mps 768 mmHg 53%
    17:00 -9°C° 0 mm 2 mps 768 mmHg 56%
    18:00 -9°C° 0 mm 2 mps 768 mmHg 59%
    19:00 -10°C° 0 mm 2 mps 767 mmHg 62%
    20:00 -10°C° 0 mm 2 mps 767 mmHg 62%
    21:00 -10°C° 0 mm 2 mps 767 mmHg 61%
    22:00 -10°C° 0 mm 2 mps 767 mmHg 61%
    23:00 -10°C° 0 mm 2 mps 767 mmHg 61%

    22 November, Friday

    Time Temperature Precipitation Wind Pressure Humidity
    00:00 -10°C° 0 mm 2 mps 767 mmHg 61%
    01:00 -10°C° 0 mm 2 mps 766 mmHg 61%
    02:00 -10°C° 0 mm 2 mps 766 mmHg 61%
    03:00 -12°C° 0 mm 2 mps 766 mmHg 61%
    04:00 -12°C° 0 mm 2 mps 766 mmHg 61%
    05:00 -12°C° 0 mm 2 mps 766 mmHg 61%
    06:00 -12°C° 0 mm 2 mps 766 mmHg 61%
    07:00 -12°C° 0 mm 2 mps 765 mmHg 60%
    08:00 -12°C° 0 mm 3 mps 765 mmHg 59%
    09:00 -10°C° 0 mm 3 mps 765 mmHg 57%
    10:00 -10°C° 0 mm 3 mps 765 mmHg 55%
    11:00 -9°C° 0 mm 3 mps 765 mmHg 52%
    12:00 -8°C° 0 mm 3 mps 764 mmHg 50%
    13:00 -7°C° 0 mm 3 mps 764 mmHg 47%
    14:00 -7°C° 0 mm 3 mps 764 mmHg 49%
    15:00 -7°C° 0 mm 3 mps 764 mmHg 51%
    16:00 -8°C° 0 mm 3 mps 763 mmHg 52%
    17:00 -8°C° 0 mm 3 mps 763 mmHg 54%
    18:00 -8°C° 0 mm 3 mps 763 mmHg 56%
    19:00 -9°C° 0 mm 3 mps 763 mmHg 58%
    20:00 -9°C° 0 mm 3 mps 763 mmHg 59%
    21:00 -9°C° 0 mm 3 mps 763 mmHg 60%
    22:00 -8°C° 0 mm 2 mps 763 mmHg 61%
    23:00 -8°C° 0 mm 2 mps 762 mmHg 62%

    23 November, Saturday

    Time Temperature Precipitation Wind Pressure Humidity
    00:00 -8°C° 0 mm 2 mps 762 mmHg 63%
    01:00 -8°C° 0 mm 2 mps 762 mmHg 64%
    02:00 -8°C° 0 mm 2 mps 762 mmHg 65%
    03:00 -8°C° 0 mm 2 mps 762 mmHg 66%
    04:00 -8°C° 0 mm 2 mps 761 mmHg 67%
    05:00 -8°C° 0 mm 2 mps 761 mmHg 69%
    06:00 -9°C° 0 mm 2 mps 761 mmHg 70%
    07:00 -9°C° 0 mm 2 mps 761 mmHg 72%
    08:00 -8°C° 0 mm 2 mps 761 mmHg 69%
    09:00 -7°C° 0 mm 2 mps 761 mmHg 65%
    10:00 -7°C° 0 mm 2 mps 761 mmHg 62%
    11:00 -6°C° 0 mm 2 mps 760 mmHg 59%
    12:00 -6°C° 0 mm 3 mps 760 mmHg 55%
    13:00 -6°C° 0 mm 3 mps 760 mmHg 51%
    14:00 -6°C° 0 mm 3 mps 760 mmHg 53%
    15:00 -6°C° 0 mm 3 mps 759 mmHg 56%
    16:00 -7°C° 0 mm 3 mps 759 mmHg 58%
    17:00 -7°C° 0 mm 3 mps 759 mmHg 60%
    18:00 -8°C° 0 mm 3 mps 759 mmHg 61%
    19:00 -8°C° 0 mm 3 mps 759 mmHg 62%
    20:00 -8°C° 0 mm 3 mps 759 mmHg 64%
    21:00 -8°C° 0 mm 3 mps 758 mmHg 66%
    22:00 -8°C° 0 mm 3 mps 758 mmHg 68%
    23:00 -8°C° 0 mm 3 mps 758 mmHg 70%

    24 November, Sunday

    Time Temperature Precipitation Wind Pressure Humidity
    00:00 -8°C° 0 mm 3 mps 758 mmHg 72%
    01:00 -7°C° 0 mm 2 mps 758 mmHg 74%
    02:00 -7°C° 0 mm 2 mps 758 mmHg 78%
    03:00 -8°C° 0 mm 2 mps 758 mmHg 82%
    04:00 -8°C° 0 mm 2 mps 758 mmHg 85%
    05:00 -8°C° 0 mm 2 mps 758 mmHg 88%
    06:00 -8°C° 0 mm 2 mps 758 mmHg 90%
    07:00 -8°C° 0 mm 2 mps 758 mmHg 93%
    08:00 -7°C° 0 mm 2 mps 758 mmHg 91%
    09:00 -7°C° 0 mm 2 mps 758 mmHg 89%
    10:00 -6°C° 0 mm 2 mps 758 mmHg 87%
    11:00 -5°C° 0 mm 2 mps 758 mmHg 83%
    12:00 -5°C° 0 mm 2 mps 758 mmHg 80%
    13:00 -5°C° 0 mm 3 mps 758 mmHg 76%
    14:00 -5°C° 0 mm 3 mps 758 mmHg 77%
    15:00 -6°C° 0 mm 3 mps 758 mmHg 78%
    16:00 -5°C° 0 mm 2 mps 758 mmHg 79%
    17:00 -7°C° 0 mm 3 mps 758 mmHg 73%
    18:00 -7°C° 0 mm 3 mps 758 mmHg 68%
    19:00 -8°C° 0 mm 3 mps 758 mmHg 62%
    20:00 -8°C° 0 mm 3 mps 757 mmHg 62%
    21:00 -9°C° 0 mm 3 mps 757 mmHg 62%
    22:00 -9°C° 0 mm 3 mps 757 mmHg 62%
    23:00 -9°C° 0 mm 3 mps 757 mmHg 62%
    Show more